Strona główna
METAR-TAF:

METAR-TAF

Lotnisko :

Upshur County Regional Airport

Buckhannon, Wirginia Zachodnia, Stany Zjednoczone

Szerokość geograficzna: 39-00N, Długość geograficzna: 080-16W, wysokość: 498 m

Aktualna obserwacja pogody

Raport powstał 29 minut temu, godzina 19:15 UTC
Wiatr 10 kt od południowo-południowy zachód w porywach dochodzący do 16 kt
Temperatura 12°C
Wilgotność 47%
Ciśnienie 1022 hPa
Widzialność: 16.1 km
bezchmurnie

METAR: KW22 081915Z AUTO 20010G16KT 10SM CLR 12/01 A3017 RMK AO2

czas: 14:44 (19:44 UTC)


TAF: brakujący

Obserwacja i prognoza pogody dla ponad 4000 lotnisk (raport METAR i TAF).

Dostępne stacje oznaczono żółtymi i czerwonymi punktami na mapie.

Najedź kursorem aby zobaczyć nazwę stacji.

Kliknij aby zobaczyć obserwacje i prognozy pogody.

Aby zmienić mapę: kliknij na zielony przycisk z czarnym krzyżykiem, aby powiększyć; na zielony przycisk z myślnikiem, aby pomniejszyć; na zielone strzałki, aby przejść do map sąsiednich.


METAR-TAF: